Regional Weather Roundup
Issued by NWS

Home | Current Version | Previous Version | Text Only | Print | Product List | Glossary On
Versions: 1 2 3 4 5 6 7 8 9 10 11 12 13 14 15 16 17 18 19 20 21 22 23 24 25 26 27 28
000
ASCA42 TJSJ 212010
RWRPR
PUERTO RICO/U.S. VIRGIN ISLANDS HOURLY WEATHER ROUNDUP
NATIONAL WEATHER SERVICE SAN JUAN PR
400 PM AST SAT OCT 21 2017

PRZ001>002-007>008-010-212100-
PUERTO RICO

CITY           SKY/WX    TMP DP  RH WIND       PRES   REMARKS
SAN JUAN LMM   MOSUNNY   86  73  66 E18       29.98S HX  93
PONCE          MOSUNNY   88  70  55 SE15G24   29.95F HX  92
AGUADILLA      PTSUNNY   84  72  65 E22G29    29.97F
$$

VIZ001>002-212100-
U.S. VIRGIN ISLANDS

CITY           SKY/WX    TMP DP  RH WIND       PRES   REMARKS
CHARLOTTE AMA  MOSUNNY   86  68  54 VRB7      29.97F
$$

HOURLY WEATHER ROUNDUP FOR THE NEWS MEDIA

CITY           SKY/WX    TMP DP  RH WIND       PRES   REMARKS
ORLANDO        PTSUNNY   82  68  61 E16       30.12
NEW YORK       PTSUNNY   69  49  48 S14       30.32R
NEWARK         PTSUNNY   79  32  18 SW7       30.29S
CHICAGO        MOSUNNY   76  56  49 S16G23    29.99F
HARTFORD       SUNNY     68  44  42 SW10      30.28R
BOSTON         MOSUNNY   77  36  22 W12       30.24R
DALLAS         PTSUNNY   87  64  46 S12G21    29.84F
PHILADELPHIA   PTSUNNY   78  40  25 CALM      30.31S
LOS ANGELES    SUNNY     72  56  57 W13       30.05F
WASHINGTON DC  CLOUDY    76  44  32 VRB5      30.31S



USA.gov is the U.S. government's official web portal to all federal, state and local government web resources and services.